Flag for Israel Weather past 2 weeks in Bnei Brak, Israel

Now
73 °F

Passing clouds.


Feels Like: 75 °F
Forecast: 61 / 80 °F
Wind: 7 mph from East

Location: Dov Airport

Current Time: Mar 6, 2015 at 10:57:43 PM

Latest Report: Mar 6, 2015 at 9:50 PM


Visibility: N/A

Pressure: 30.01 "Hg

Humidity: 20%

Dew point: 30 °F

Location of Bnei BrakLocation

Historic Weather in Bnei Brak — Graph

°F

Bnei Brak temperature yesterday

Maximum temperature yesterday: 66 °F (at 2:50 PM)
Minimum temperature yesterday: 54 °F (at 5:50 AM)
Average temperature yesterday: 62 °F

Past Weeks' High & Low Weather Summary

 TemperatureHumidityPressure
High82 °F (Feb 27, 11:50 AM)88% (Feb 25, 7:50 AM)30.18 "Hg (Feb 25, 7:50 AM)
Low46 °F (Feb 20, 8:50 AM)17% (Feb 27, 11:50 AM)29.65 "Hg (Feb 20, 6:50 AM)
Average63 °F59%30.01 "Hg
* Reported Feb 19 8:50 PM — Mar 6 8:50 PM, Bnei Brak, Weather by CustomWeather, © 2015

Note: Actual official high and low records may vary slightly from our data, if they occured in-between our weather recording intervals... More about our weather records

Advertising

Bnei Brak weather history for previous 24 hours

 ConditionsComfort  
Time TempWeatherWind HumidityBarometerVisibility
8:50 PM
Fri, Mar 6
73 °FPassing clouds.7 mph20%30.01 "HgN/A
7:50 PM73 °FPassing clouds.8 mph22%30.01 "HgN/A
6:50 PM75 °FClear.3 mph24%29.98 "Hg10 mi
5:50 PM77 °FPassing clouds.5 mph24%30.01 "HgN/A
4:50 PM81 °FPassing clouds.5 mph21%30.01 "HgN/A
3:50 PM81 °FPassing clouds.7 mph21%30.01 "HgN/A
2:50 PM81 °FPassing clouds.10 mph18%30.01 "HgN/A
1:50 PM79 °FPassing clouds.12 mph21%30.04 "HgN/A
12:50 PM77 °FPassing clouds.12 mph22%30.07 "HgN/A
11:50 AM77 °FPassing clouds.13 mph24%30.07 "HgN/A
10:50 AM77 °FSunny.10 mph24%30.07 "Hg10 mi
9:50 AM73 °FPassing clouds.8 mph27%30.07 "HgN/A
8:50 AM70 °FPassing clouds.8 mph33%30.09 "HgN/A
7:50 AM66 °FPassing clouds.8 mph35%30.09 "HgN/A
6:50 AM63 °FPassing clouds.9 mph37%30.07 "HgN/A
5:50 AM61 °FPassing clouds.8 mph39%30.07 "HgN/A
10:50 PM
Thu, Mar 5
61 °FClear.7 mph59%30.09 "Hg10 mi
Weather by CustomWeather, © 2015

See weather overviewHow to use our weather pages